Location: Gull Harbor
(47.1000°N, 122.9000°W)
Time: 21:23:57
(UTC-07:00)

STARLINK-2647 - Pass Details

Date: 01 August 2021
Orbit: 546 x 548 km, 53.1° (Epoch: 24 September)

Event Time Altitude Azimuth Distance (km) Brightness Sun altitude
Rises 21:03:43 0° 295° (WNW) 2,727 9.9 -3.8°
Reaches altitude 10° 21:06:08 10° 284° (WNW) 1,829 7.8 -4.1°
Maximum altitude 21:09:47 30° 223° (SW) 999 5.1 -4.7°
Drops below altitude 10° 21:13:24 10° 162° (SSE) 1,818 5.8 -5.2°
Enters shadow 21:15:02 - 154° (SSE) 2,414 6.4 -5.4°
